| time (UTC) | temp C | wind direction | speed KPH | gust KPH | rain 1hr cm | rain 24hr cm | rain mn cm | humidity % | barometer mb |
| 20260504195007 | 22 | 251 | 6.4 | 14.5 | 0.00 | 0.00 | 0.00 | 33 | 1010.4 |
| 20260504194530 | 22 | 247 | 6.4 | 19.3 | 0.00 | 0.00 | 0.00 | 33 | 1010.6 |
| 20260504194009 | 22 | 232 | 6.4 | 19.3 | 0.00 | 0.00 | 0.00 | 34 | 1010.6 |
| 20260504193509 | 22 | 271 | 6.4 | 22.5 | 0.00 | 0.00 | 0.00 | 34 | 1010.6 |
| 20260504193026 | 22 | 217 | 8.0 | 22.5 | 0.00 | 0.00 | 0.00 | 34 | 1010.6 |
| 20260504192510 | 22 | 205 | 3.2 | 22.5 | 0.00 | 0.00 | 0.00 | 35 | 1010.8 |
| 20260504192009 | 22 | 201 | 9.7 | 19.3 | 0.00 | 0.00 | 0.00 | 32 | 1010.7 |
| 20260504191513 | 22 | 236 | 6.4 | 14.5 | 0.00 | 0.00 | 0.00 | 33 | 1010.9 |
| 20260504191007 | 22 | 273 | 4.8 | 14.5 | 0.00 | 0.00 | 0.00 | 36 | 1011.0 |
| 20260504190509 | 21 | 185 | 8.0 | 19.3 | 0.00 | 0.00 | 0.00 | 34 | 1011.1 |
| 20260504190028 | 21 | 197 | 8.0 | 19.3 | 0.00 | 0.00 | 0.00 | 36 | 1011.1 |
| 20260504185507 | 22 | 250 | 8.0 | 17.7 | 0.00 | 0.00 | 0.00 | 34 | 1011.2 |
| 20260504185008 | 21 | 259 | 6.4 | 16.1 | 0.00 | 0.00 | 0.00 | 33 | 1011.3 |
| 20260504184524 | 21 | 266 | 4.8 | 20.9 | 0.00 | 0.00 | 0.00 | 33 | 1011.4 |
| 20260504184011 | 21 | 286 | 8.0 | 24.1 | 0.00 | 0.00 | 0.00 | 36 | 1011.5 |
| 20260504183511 | 21 | 167 | 8.0 | 24.1 | 0.00 | 0.00 | 0.00 | 32 | 1011.4 |
| 20260504183026 | 21 | 149 | 8.0 | 22.5 | 0.00 | 0.00 | 0.00 | 33 | 1011.5 |
| 20260504182512 | 22 | 256 | 6.4 | 19.3 | 0.00 | 0.00 | 0.00 | 34 | 1011.6 |
| 20260504182012 | 21 | 281 | 4.8 | 19.3 | 0.00 | 0.00 | 0.00 | 35 | 1011.6 |
| 20260504181526 | 21 | 192 | 6.4 | 17.7 | 0.00 | 0.00 | 0.00 | 34 | 1011.7 |
| 20260504181012 | 21 | 267 | 4.8 | 20.9 | 0.00 | 0.00 | 0.00 | 36 | 1011.8 |
| 20260504180513 | 21 | 201 | 9.7 | 20.9 | 0.00 | 0.00 | 0.00 | 33 | 1011.8 |
| 20260504180017 | 21 | 230 | 4.8 | 19.3 | 0.00 | 0.00 | 0.00 | 33 | 1011.9 |
| 20260504175509 | 21 | 311 | 6.4 | 17.7 | 0.00 | 0.00 | 0.00 | 36 | 1012.0 |
| 20260504175012 | 20 | 275 | 4.8 | 17.7 | 0.00 | 0.00 | 0.00 | 37 | 1012.0 |
| 20260504174519 | 21 | 265 | 6.4 | 17.7 | 0.00 | 0.00 | 0.00 | 36 | 1012.1 |
| 20260504174008 | 21 | 274 | 8.0 | 14.5 | 0.00 | 0.00 | 0.00 | 35 | 1012.1 |
| 20260504173508 | 21 | 180 | 6.4 | 12.9 | 0.00 | 0.00 | 0.00 | 38 | 1012.1 |
| 20260504173024 | 20 | 219 | 6.4 | 17.7 | 0.00 | 0.00 | 0.00 | 40 | 1012.2 |
| 20260504172508 | 20 | 281 | 6.4 | 17.7 | 0.00 | 0.00 | 0.00 | 34 | 1012.3 |
| 20260504172010 | 21 | 228 | 6.4 | 17.7 | 0.00 | 0.00 | 0.00 | 35 | 1012.5 |
| 20260504171534 | 21 | 235 | 1.6 | 16.1 | 0.00 | 0.00 | 0.00 | 40 | 1012.4 |
| 20260504171012 | 20 | 233 | 4.8 | 16.1 | 0.00 | 0.00 | 0.00 | 35 | 1012.6 |
| 20260504170511 | 20 | 200 | 6.4 | 11.3 | 0.00 | 0.00 | 0.00 | 37 | 1012.7 |
| 20260504151005 | 18 | 250 | 6.4 | 19.3 | 0.00 | 0.00 | 0.00 | 46 | 1013.7 |
| 20260504150503 | 18 | 232 | 6.4 | 16.1 | 0.00 | 0.00 | 0.00 | 46 | 1013.7 |
| 20260504141003 | 16 | 197 | 8.0 | 14.5 | 0.00 | 0.00 | 0.00 | 47 | 1014.0 |
| 20260504140503 | 16 | 189 | 6.4 | 14.5 | 0.00 | 0.00 | 0.00 | 49 | 1014.0 |
| 20260504130502 | 13 | 159 | 6.4 | 16.1 | 0.00 | 0.00 | 0.00 | 59 | 1014.7 |
| 20260504110507 | 9 | 169 | 3.2 | 11.3 | 0.00 | 0.00 | 0.00 | 69 | 1015.2 |
| 20260504100506 | 7 | 360 | 1.6 | 3.2 | 0.00 | 0.00 | 0.00 | 69 | 1015.2 |
| 20260504081527 | 7 | 360 | 1.6 | 3.2 | 0.00 | 0.00 | 0.00 | 65 | 1014.7 |
| 20260504081006 | 7 | 360 | 0.0 | 3.2 | 0.00 | 0.00 | 0.00 | 65 | 1014.8 |
| 20260504080507 | 7 | 360 | 0.0 | 3.2 | 0.00 | 0.00 | 0.00 | 65 | 1014.8 |
| 20260504050509 | 7 | 360 | 0.0 | 3.2 | 0.00 | 0.00 | 0.00 | 57 | 1014.5 |
| 20260504045509 | 8 | 360 | 0.0 | 3.2 | 0.00 | 0.00 | 0.00 | 55 | 1014.6 |
| 20260504045009 | 8 | 360 | 0.0 | 3.2 | 0.00 | 0.00 | 0.00 | 54 | 1014.6 |
| 20260504044527 | 8 | 360 | 0.0 | 4.8 | 0.00 | 0.00 | 0.00 | 54 | 1014.5 |
| 20260504044010 | 8 | 360 | 1.6 | 4.8 | 0.00 | 0.00 | 0.00 | 54 | 1014.5 |
| 20260504043510 | 8 | 360 | 0.0 | 3.2 | 0.00 | 0.00 | 0.00 | 54 | 1014.4 |
| 20260504043027 | 8 | 360 | 0.0 | 3.2 | 0.00 | 0.00 | 0.00 | 54 | 1014.4 |
| 20260504042508 | 8 | 360 | 0.0 | 3.2 | 0.00 | 0.00 | 0.00 | 54 | 1014.3 |
| 20260504042008 | 8 | 360 | 0.0 | 3.2 | 0.00 | 0.00 | 0.00 | 53 | 1014.2 |
| 20260504041522 | 8 | 360 | 0.0 | 3.2 | 0.00 | 0.00 | 0.00 | 53 | 1014.2 |
| 20260504041007 | 8 | 360 | 0.0 | 4.8 | 0.00 | 0.00 | 0.00 | 53 | 1014.1 |
| 20260504040509 | 8 | 360 | 1.6 | 4.8 | 0.00 | 0.00 | 0.00 | 52 | 1014.1 |
| 20260504040027 | 8 | 360 | 1.6 | 4.8 | 0.00 | 0.00 | 0.00 | 53 | 1014.1 |
| 20260504035503 | 8 | 360 | 0.0 | 3.2 | 0.00 | 0.00 | 0.00 | 54 | 1014.0 |
| 20260504035003 | 8 | 360 | 0.0 | 3.2 | 0.00 | 0.00 | 0.00 | 54 | 1013.9 |
| 20260504034512 | 8 | 360 | 0.0 | 3.2 | 0.00 | 0.00 | 0.00 | 54 | 1013.9 |
| 20260504034006 | 8 | 360 | 0.0 | 3.2 | 0.00 | 0.00 | 0.00 | 53 | 1013.9 |
| 20260504033506 | 8 | 360 | 0.0 | 3.2 | 0.00 | 0.00 | 0.00 | 52 | 1013.9 |
| 20260504033019 | 9 | 360 | 0.0 | 3.2 | 0.00 | 0.00 | 0.00 | 51 | 1013.8 |
| 20260504032507 | 9 | 360 | 0.0 | 3.2 | 0.00 | 0.00 | 0.00 | 50 | 1013.8 |
| 20260504032007 | 9 | 360 | 0.0 | 3.2 | 0.00 | 0.00 | 0.00 | 50 | 1013.8 |
| 20260504031521 | 9 | 360 | 0.0 | 3.2 | 0.00 | 0.00 | 0.00 | 50 | 1013.8 |
| 20260504031008 | 9 | 360 | 1.6 | 3.2 | 0.00 | 0.00 | 0.00 | 50 | 1013.8 |
| 20260504030512 | 9 | 360 | 0.0 | 3.2 | 0.00 | 0.00 | 0.00 | 50 | 1013.9 |
| 20260504030003 | 8 | 360 | 0.0 | 3.2 | 0.00 | 0.00 | 0.00 | 51 | 1013.9 |
| 20260504025507 | 8 | 360 | 0.0 | 3.2 | 0.00 | 0.00 | 0.00 | 51 | 1013.8 |
| 20260504025004 | 8 | 360 | 0.0 | 3.2 | 0.00 | 0.00 | 0.00 | 52 | 1013.8 |
| 20260504024507 | 7 | 360 | 0.0 | 0.0 | 0.00 | 0.00 | 0.00 | 54 | 1013.8 |
| 20260504024004 | 8 | 360 | 0.0 | 3.2 | 0.00 | 0.00 | 0.00 | 53 | 1013.8 |
| 20260504023504 | 8 | 360 | 0.0 | 3.2 | 0.00 | 0.00 | 0.00 | 52 | 1013.7 |
| 20260504023018 | 8 | 360 | 0.0 | 0.0 | 0.00 | 0.00 | 0.00 | 53 | 1013.8 |
| 20260504022507 | 8 | 360 | 0.0 | 0.0 | 0.00 | 0.00 | 0.00 | 52 | 1013.8 |
| 20260504022006 | 8 | 360 | 0.0 | 0.0 | 0.00 | 0.00 | 0.00 | 51 | 1013.8 |
| 20260504021519 | 8 | 360 | 0.0 | 0.0 | 0.00 | 0.00 | 0.00 | 51 | 1013.7 |
| 20260504021007 | 8 | 360 | 0.0 | 3.2 | 0.00 | 0.00 | 0.00 | 51 | 1013.7 |
| 20260504020507 | 8 | 360 | 0.0 | 3.2 | 0.00 | 0.00 | 0.00 | 52 | 1013.7 |
| 20260504020026 | 8 | 234 | 0.0 | 3.2 | 0.00 | 0.00 | 0.00 | 53 | 1013.6 |
| 20260504015510 | 8 | 234 | 0.0 | 0.0 | 0.00 | 0.00 | 0.00 | 54 | 1013.6 |
| 20260504015008 | 8 | 233 | 0.0 | 0.0 | 0.00 | 0.00 | 0.00 | 54 | 1013.6 |
| 20260504014506 | 8 | 360 | 0.0 | 0.0 | 0.00 | 0.00 | 0.00 | 54 | 1013.6 |
| 20260504014004 | 8 | 360 | 0.0 | 0.0 | 0.00 | 0.00 | 0.00 | 54 | 1013.5 |
| 20260504013504 | 8 | 360 | 0.0 | 0.0 | 0.00 | 0.00 | 0.00 | 54 | 1013.4 |
| 20260504013008 | 8 | 360 | 0.0 | 0.0 | 0.00 | 0.00 | 0.00 | 54 | 1013.4 |
| 20260504012504 | 9 | 360 | 0.0 | 0.0 | 0.00 | 0.00 | 0.00 | 51 | 1013.4 |
| 20260504012003 | 10 | 360 | 0.0 | 0.0 | 0.00 | 0.00 | 0.00 | 50 | 1013.3 |
| 20260504011521 | 10 | 233 | 0.0 | 0.0 | 0.00 | 0.00 | 0.00 | 46 | 1013.3 |
| 20260504011006 | 10 | 233 | 0.0 | 3.2 | 0.00 | 0.00 | 0.00 | 45 | 1013.2 |
| 20260504010506 | 11 | 234 | 0.0 | 3.2 | 0.00 | 0.00 | 0.00 | 43 | 1013.1 |
| 20260504010020 | 11 | 234 | 0.0 | 3.2 | 0.00 | 0.00 | 0.00 | 41 | 1013.0 |
| 20260504005508 | 11 | 234 | 0.0 | 3.2 | 0.00 | 0.00 | 0.00 | 41 | 1012.9 |
| 20260504005011 | 11 | 248 | 0.0 | 3.2 | 0.00 | 0.00 | 0.00 | 42 | 1012.9 |
| 20260504004524 | 12 | 248 | 0.0 | 3.2 | 0.00 | 0.00 | 0.00 | 40 | 1012.9 |
| 20260504004008 | 11 | 240 | 0.0 | 3.2 | 0.00 | 0.00 | 0.00 | 42 | 1012.8 |
| 20260504003506 | 12 | 240 | 0.0 | 3.2 | 0.00 | 0.00 | 0.00 | 40 | 1012.7 |
| 20260504003006 | 12 | 239 | 0.0 | 3.2 | 0.00 | 0.00 | 0.00 | 41 | 1012.6 |
| 20260504002504 | 12 | 239 | 0.0 | 3.2 | 0.00 | 0.00 | 0.00 | 39 | 1012.7 |
| 20260504002006 | 12 | 236 | 0.0 | 3.2 | 0.00 | 0.00 | 0.00 | 39 | 1012.7 |
| 20260504001511 | 12 | 231 | 0.0 | 3.2 | 0.00 | 0.00 | 0.00 | 38 | 1012.7 |
| 20260504001005 | 12 | 263 | 1.6 | 3.2 | 0.00 | 0.00 | 0.00 | 39 | 1012.6 |
| 20260504000507 | 13 | 280 | 1.6 | 6.4 | 0.00 | 0.00 | 0.00 | 36 | 1012.5 |
| 20260504000015 | 13 | 265 | 1.6 | 9.7 | 0.00 | 0.00 | 0.00 | 36 | 1012.5 |
| 20260503235509 | 13 | 245 | 3.2 | 9.7 | 0.00 | 0.00 | 0.00 | 35 | 1012.5 |
| 20260503235008 | 13 | 264 | 1.6 | 6.4 | 0.00 | 0.00 | 0.00 | 35 | 1012.5 |
| 20260503234522 | 13 | 283 | 3.2 | 6.4 | 0.00 | 0.00 | 0.00 | 35 | 1012.4 |
| 20260503234009 | 13 | 286 | 1.6 | 11.3 | 0.00 | 0.00 | 0.00 | 34 | 1012.4 |
| 20260503233510 | 13 | 265 | 1.6 | 11.3 | 0.00 | 0.00 | 0.00 | 34 | 1012.3 |
| 20260503233028 | 13 | 265 | 1.6 | 6.4 | 0.00 | 0.00 | 0.00 | 34 | 1012.2 |
| 20260503232507 | 14 | 259 | 1.6 | 6.4 | 0.00 | 0.00 | 0.00 | 34 | 1012.2 |
| 20260503232002 | 14 | 246 | 3.2 | 6.4 | 0.00 | 0.00 | 0.00 | 32 | 1012.1 |
| 20260503231514 | 14 | 260 | 3.2 | 12.9 | 0.00 | 0.00 | 0.00 | 33 | 1012.1 |
| 20260503231003 | 14 | 290 | 3.2 | 12.9 | 0.00 | 0.00 | 0.00 | 34 | 1012.0 |
| 20260503230503 | 14 | 304 | 3.2 | 9.7 | 0.00 | 0.00 | 0.00 | 33 | 1012.0 |
| 20260503230015 | 14 | 265 | 1.6 | 16.1 | 0.00 | 0.00 | 0.00 | 32 | 1012.0 |
| 20260503225510 | 15 | 254 | 4.8 | 16.1 | 0.00 | 0.00 | 0.00 | 30 | 1011.9 |
| 20260503225009 | 14 | 330 | 3.2 | 14.5 | 0.00 | 0.00 | 0.00 | 33 | 1012.0 |
| 20260503224520 | 14 | 294 | 6.4 | 14.5 | 0.00 | 0.00 | 0.00 | 31 | 1011.8 |
| 20260503224007 | 14 | 237 | 3.2 | 14.5 | 0.00 | 0.00 | 0.00 | 33 | 1011.8 |
| 20260503223512 | 14 | 269 | 3.2 | 19.3 | 0.00 | 0.00 | 0.00 | 34 | 1011.8 |
| 20260503223024 | 15 | 260 | 6.4 | 19.3 | 0.00 | 0.00 | 0.00 | 32 | 1011.8 |
| 20260503222507 | 15 | 259 | 4.8 | 16.1 | 0.00 | 0.00 | 0.00 | 34 | 1011.7 |
| 20260503222015 | 15 | 296 | 1.6 | 6.4 | 0.00 | 0.00 | 0.00 | 33 | 1011.8 |
| 20260503221525 | 15 | 283 | 3.2 | 12.9 | 0.00 | 0.00 | 0.00 | 34 | 1011.8 |
| 20260503221003 | 15 | 266 | 1.6 | 16.1 | 0.00 | 0.00 | 0.00 | 34 | 1011.9 |
| 20260503220502 | 15 | 331 | 4.8 | 16.1 | 0.00 | 0.00 | 0.00 | 30 | 1011.8 |
| 20260503220014 | 15 | 259 | 3.2 | 11.3 | 0.00 | 0.00 | 0.00 | 32 | 1011.9 |
| 20260503215502 | 15 | 296 | 4.8 | 16.1 | 0.00 | 0.00 | 0.00 | 32 | 1011.9 |
| 20260503215006 | 15 | 315 | 3.2 | 16.1 | 0.00 | 0.00 | 0.00 | 32 | 1012.0 |
| 20260503214521 | 15 | 302 | 4.8 | 14.5 | 0.00 | 0.00 | 0.00 | 32 | 1012.1 |
| 20260503214009 | 15 | 325 | 3.2 | 19.3 | 0.00 | 0.00 | 0.00 | 31 | 1012.0 |
| 20260503213506 | 15 | 316 | 3.2 | 19.3 | 0.00 | 0.00 | 0.00 | 33 | 1011.9 |
| 20260503213020 | 15 | 280 | 6.4 | 19.3 | 0.00 | 0.00 | 0.00 | 30 | 1011.9 |
| 20260503212503 | 15 | 32 | 6.4 | 19.3 | 0.00 | 0.00 | 0.00 | 30 | 1012.0 |
| 20260503212002 | 15 | 265 | 9.7 | 17.7 | 0.00 | 0.00 | 0.00 | 31 | 1011.9 |
| 20260503211506 | 15 | 343 | 4.8 | 14.5 | 0.00 | 0.00 | 0.00 | 34 | 1011.9 |
| 20260503211003 | 15 | 78 | 4.8 | 14.5 | 0.00 | 0.00 | 0.00 | 32 | 1012.0 |
| 20260503210504 | 14 | 310 | 4.8 | 14.5 | 0.00 | 0.00 | 0.00 | 32 | 1012.1 |
| 20260503210010 | 15 | 280 | 4.8 | 12.9 | 0.00 | 0.00 | 0.00 | 32 | 1012.1 |
| 20260503205504 | 15 | 42 | 6.4 | 22.5 | 0.00 | 0.00 | 0.00 | 34 | 1012.1 |
| 20260503205007 | 15 | 332 | 8.0 | 20.9 | 0.00 | 0.00 | 0.00 | 32 | 1012.2 |
| 20260503204519 | 15 | 318 | 8.0 | 19.3 | 0.00 | 0.00 | 0.00 | 32 | 1012.0 |
| 20260503204007 | 15 | 265 | 8.0 | 17.7 | 0.00 | 0.00 | 0.00 | 32 | 1012.1 |
| 20260503203507 | 15 | 273 | 8.0 | 17.7 | 0.00 | 0.00 | 0.00 | 35 | 1012.1 |
| 20260503203021 | 14 | 286 | 9.7 | 22.5 | 0.00 | 0.00 | 0.00 | 33 | 1012.1 |
| 20260503202510 | 14 | 327 | 12.9 | 22.5 | 0.00 | 0.00 | 0.00 | 31 | 1012.2 |
| 20260503202012 | 15 | 248 | 8.0 | 17.7 | 0.00 | 0.00 | 0.00 | 34 | 1012.1 |
| 20260503201524 | 14 | 311 | 4.8 | 12.9 | 0.00 | 0.00 | 0.00 | 36 | 1012.1 |
| 20260503201003 | 14 | 259 | 4.8 | 14.5 | 0.00 | 0.00 | 0.00 | 35 | 1012.1 |
| 20260503200504 | 14 | 28 | 4.8 | 16.1 | 0.00 | 0.00 | 0.00 | 32 | 1012.1 |
| 20260503200009 | 14 | 310 | 6.4 | 17.7 | 0.00 | 0.00 | 0.00 | 33 | 1012.2 |
| 20260503195502 | 14 | 41 | 9.7 | 20.9 | 0.00 | 0.00 | 0.00 | 32 | 1012.1 |